Weather in Abdreyevo

Russia / Ulyanovsk Oblast     54°01′09″N   50°01′56″E
В апреле 2022 года жителям России запретили посещать сайт meteo.paraplan.net по решению Генеральной прокуратуры. Аудитория сайта уменьшилась в 10 раз. Владельцы сайта не видят смысла в поддержке погодного сервера в таких условиях. Сайт будет закрыт в октябре.
temp.,
°C
wind,
m/s
gust,
m/s
humid.,
%
clouds,
%
prec.,
mm/h
press.,
hPa
HPBL,
m
29 september, thu
thu2901:00+9se81788100 0.5 1010533
04:00+10se81690100 1.1 1009519
07:00+11se71386100 0.1 1008419
10:00+11se61187100 0.2 1009402
13:00+12ese5891100 0.1 1009530
16:00+11e4795100 1.6 1010277
19:00+11ne2398100 0.8 1012124
22:00+11nne2398100 0.8 1013124
30 september, fri
fri3001:00+11nne2397100 0.0 1015164
04:00+10ne3495100 0.0 1017221
07:00+10ne3492100 0.0 1019241
10:00+10ne3485100 0.0 1021316
13:00+13ne3375100 0.0 1022519
16:00+14ne337098 0.0 1022742
19:00+13ene2373100 0.0 102373
22:00+12ese4678100 0.0 1024278
1 october, sat
sat101:00+10ese358294 0.0 1024209
04:00+9ese3582100 0.0 1024184
07:00+8ese358199 0.0 1025173
10:00+10se3472100 0.0 1025272
13:00+14se336179 0.0 1023595
16:00+15sse235988 0.0 1022847
19:00+12se357249 0.0 102280
22:00+11sse3677100 0.0 1021105
2 october, sun
sun201:00+11sse3875100 0.0 1020176
04:00+11sse497712 0.0 1019185
07:00+11sse5108353 0.6 1019234
10:00+15s6127199 0.7 1017409
13:00+15sse61274100 0.0 1016395
16:00+19s6116277 0.1 10151033
19:00+16s61476100 0.7 1014423
22:00+15s51483100 2.7 1013336
3 october, mon
mon301:00+15s41194100 2.5 1013322
04:00+15ssw4994100 2.6 1013256
07:00+14sse6126663 0.2 1016306
10:00+16s71166100 0.2 1017418
13:00+20s794750 0.0 1017933
16:00+20s79415 0.0 10181124
19:00+16sse6134338 0.0 1020378
22:00+15sse61542100 0.0 1021424